Estación Meteorológica Peña el Pijo (Robertgarden) [ 07/12/20 04:06:24 CEST ]

Fecha Hora Presion(HPa) Temp (°C) Humedad % Rocio (°C) Viento ( m/s) Direccion Lluvia 1Hora(mm) Lluvia 24H(mm) LLuvia Total(mm)
2020-Jan-30 01:09:05 1013.400 - - - - N     39.88
2020-Jan-30 02:09:37 1013.100 - - - - N     39.88
2020-Jan-30 03:13:54 1012.800 - - - - N     39.88
2020-Jan-30 04:09:32 1012.900 - - - - N     39.88
2020-Jan-30 05:09:44 1012.500 - - - - N     39.88
2020-Jan-30 06:09:41 1012.000 - - - - N     39.88
2020-Jan-30 07:08:50 1012.000 - - - - N     39.88
2020-Jan-30 08:08:48 1012.200 - - - - N     39.88
2020-Jan-30 09:08:59 1012.800 - - - - N     39.88
2020-Jan-30 10:09:09 1013.200 - - - - N     39.88
2020-Jan-30 11:09:06 1013.200 - - - - N     39.88
2020-Jan-30 12:08:53 1013.400 - - - - N     39.88
2020-Jan-30 13:09:08 1012.500 - - - - N     39.88
2020-Jan-30 14:09:04 1011.900 - - - - N     39.88
2020-Jan-30 15:09:19 1011.600 - - - - N     39.88
2020-Jan-30 16:09:19 1011.600 - - - - N     39.88
2020-Jan-30 17:09:08 1011.400 - - - - N     39.88
2020-Jan-30 18:09:21 1011.500 - - - - N     39.88
2020-Jan-30 19:08:56 1012.100 - - - - N     39.88
2020-Jan-30 20:09:20 1012.300 - - - - N     39.88
2020-Jan-30 21:09:12 1012.700 - - - - N     39.88
2020-Jan-30 22:09:24 1012.600 - - - - N     39.88
2020-Jan-30 23:09:01 1012.800 - - - - N     39.88

Temperatura Máxima:    Temperatura Mínima:
Presión Máxima:1013.400 Hpa    Presión Mínima:1011.400 Hpa


Volver